This is the latest recevied weather packets stored in our database for station/object KG0HG. If no packets are shown the sender has not sent any weather packets the latest 10 day(s).
| Time | Temp. | Humidity | Pressure | Rain* | Wind** | Luminosity | Snow |
|---|---|---|---|---|---|---|---|
| 1777985245 | 8.89° C | 93% | 1010.2 hPa | 1.78 mm | - | 30 W/m² | - |
| 1777984942 | 8.89° C | 93% | 1010.2 hPa | 0 mm | - | 14 W/m² | - |
| 1777984637 | 8.89° C | 92% | 1010.2 hPa | 0 mm | - | 5 W/m² | - |
| 1777984335 | 9.44° C | 92% | 1010.4 hPa | 0 mm | - | 2 W/m² | - |
| 1777984031 | 8.89° C | 92% | 1010.2 hPa | 0 mm | - | 3 W/m² | - |
| 1777983728 | 8.89° C | 92% | 1010 hPa | 0 mm | - | 2 W/m² | - |
| 1777983425 | 8.89° C | 92% | 1010.2 hPa | 0 mm | - | 4 W/m² | - |
| 1777983121 | 8.89° C | 91% | 1010 hPa | 0 mm | - | 6 W/m² | - |
| 1777982817 | 8.89° C | 90% | 1009.7 hPa | 0 mm | - | 9 W/m² | - |
| 1777982514 | 8.89° C | 89% | 1010.2 hPa | 1.27 mm | - | 6 W/m² | - |
| 1777982207 | 8.89° C | 88% | 1010.4 hPa | 1.27 mm | - | 3 W/m² | - |
| 1777981906 | 9.44° C | 87% | 1010.2 hPa | 0 mm | - | 0 W/m² | - |
| 1777981602 | 9.44° C | 86% | 1009.9 hPa | 0 mm | - | 0 W/m² | - |
| 1777981299 | 9.44° C | 87% | 1009.7 hPa | 0 mm | - | 0 W/m² | - |
| 1777980995 | 8.89° C | 88% | 1010 hPa | 0 mm | - | 0 W/m² | - |
| 1777980692 | 8.89° C | 90% | 1009.7 hPa | 0 mm | - | 0 W/m² | - |
| 1777980388 | 8.89° C | 90% | 1009.6 hPa | 0 mm | - | 0 W/m² | - |
| 1777980086 | 8.89° C | 90% | 1009.6 hPa | 0 mm | - | 0 W/m² | - |
| 1777979780 | 8.89° C | 91% | 1009.5 hPa | 0 mm | - | 0 W/m² | - |
| 1777979476 | 8.89° C | 91% | 1009.8 hPa | 0 mm | - | 0 W/m² | - |
| 1777979172 | 8.89° C | 91% | 1009.9 hPa | 0 mm | - | 0 W/m² | - |
| 1777978869 | 8.89° C | 91% | 1009.7 hPa | 0 mm | - | 0 W/m² | - |
| 1777978566 | 8.89° C | 90% | 1009.6 hPa | 0 mm | - | 0 W/m² | - |
| 1777978262 | 8.89° C | 91% | 1009.5 hPa | 0 mm | - | 0 W/m² | - |
| 1777977959 | 8.89° C | 90% | 1009.8 hPa | 0 mm | - | 0 W/m² | - |
* Rain latest hour (hover to see other rain measurements)
** Current wind speed in m/s (hover to see current wind gust speed)